User: anonymous   Login
Location: Fosso Corella
(43.9167°N, 11.5667°E)
Time: 15:39:08
(UTC+00:00)
Language:

Cosmos 2221 - Orbit

View from above orbital plane
View from above orbital plane
View from above satellite
View from above satellite

Ground track
Ground track

The orbit data is extracted from the following two-line orbital elements,

1 22236U 92080A   20224.90463882 +.00000141 +00000-0 +12644-4 0  9991
2 22236 082.5062 051.2543 0017762 134.0714 226.1970 14.87938801477524
Epoch (UTC): 11 August 2020 21:42:40
Eccentricity: 0.0017762
inclination: 82.5062°
perigee height: 592 km
apogee height: 617 km
right ascension of ascending node: 51.2543°
argument of perigee: 134.0714°
revolutions per day: 14.87938801
mean anomaly at epoch: 226.1970°
orbit number at epoch: 47752

The dashed part of the orbit path shows where the satellite is in the earth's shadow,  

DLR